Regional & State Weather Roundups


087 
ASUS43 KIND 221409
RWRIN 
WEATHER ROUNDUP FOR INDIANA
NATIONAL WEATHER SERVICE INDIANAPOLIS IN
1000 AM EDT SAT JUL 22 2017
NOTE: "FAIR" INDICATES FEW OR NO CLOUDS BELOW 12,000 FEET WITH NO
SIGNIFICANT WEATHER AND/OR OBSTRUCTIONS TO VISIBILITY.
* - STATION DOES NOT REPORT WEATHER SUCH AS PRECIPITATION OR FOG.
+ - STATION NOT QUALITY CONTROLLED BY THE NATIONAL WEATHER SERVICE.
    USE DATA WITH CAUTION...ESPECIALLY DEWPOINT AND RELATIVE
    HUMIDITY OBSERVATIONS.
INZ001>003-010>013-019-020-221500-
NORTHWEST INDIANA
  
CITY           SKY/WX    TMP DP  RH WIND       PRES   REMARKS
GARY /AIRPORT/ PTSUNNY   73  68  83 NW14      29.79F                  
KNOX *+        CLOUDY    70  68  94 S15       29.72F                  
LA PORTE +     CLOUDY    72  70  94 NE8       29.79F                  
MICHIGAN CITY+ CLOUDY    72  72 100 CALM      29.80F                  
MONTICELLO +   RAIN      72  71  96 W8        29.90S                  
RENSSELAER +   LGT RAIN  70  68  94 S16       29.76F                  
VALPARAISO     CLOUDY    72  70  93 S9        29.73F                  
$$
LMZ046-743>745-221500-
SOUTHERN LAKE MICHIGAN
  
STATION/POSITION TIME  TEMP    WIND        PRES    WAVE
                       AIR SEA DIR/SP/G            HT
                 (UTC) (F)     (DEG/KT/KT) (MB)    (FT)
BURNS HARBOR     1340   72      30/ 19/ 21 1008.5F
MICHIGAN CITY    1340   72     360/  7/  7   N/A
5NW MICH CITY    1400   74 74   60/  4/  6   N/A     2
$$
INZ004-005-014>016-021>024-221500-
NORTH CENTRAL INDIANA
  
CITY           SKY/WX    TMP DP  RH WIND       PRES   REMARKS
ELKHART        PTSUNNY   73  70  88 CALM      29.83S                  
GOSHEN         CLOUDY    73  69  87 W6        29.83F                  
LOGANSPORT +   LGT RAIN  72  70  94 W12       29.90R                  
PERU/GRISSOM   DRIZZLE   73  73 100 W10       29.88R                  
ROCHESTER +    LGT RAIN  73  73 100 SW12G17   29.85F                  
SOUTH BEND     LGT RAIN  72  72 100 CALM      29.81F                  
WARSAW +       LGT RAIN  72  70  94 SW8       29.82F                  
$$
INZ006>009-017-018-025>027-221500-
NORTHEAST INDIANA
  
CITY           SKY/WX    TMP DP  RH WIND       PRES   REMARKS
AUBURN +       CLOUDY    73  70  88 CALM      29.85F                  
FORT WAYNE     LGT RAIN  74  70  87 SW13      29.85R                  
HUNTINGTON +   LGT RAIN  73  71  95 SW5       29.87R                  
KENDALLVILLE + CLOUDY    72  72 100 CALM      29.85F                  
$$
INZ028-029-035-036-043>045-051>053-221500-
WEST CENTRAL INDIANA
  
CITY           SKY/WX    TMP DP  RH WIND       PRES   REMARKS
GREENCASTLE +  CLOUDY    77  77 100 CALM      29.92S FOG              
LAFAYETTE      CLOUDY    74  72  93 W7        29.91R                  
TERRE HAUTE    MOSUNNY   83  76  79 W8        29.92R                  
$$
INZ030>032-037>040-046>048-054>057-064-065-221500-
CENTRAL INDIANA
  
CITY           SKY/WX    TMP DP  RH WIND       PRES   REMARKS
CP ATTERBURY + CLOUDY    81  73  78 SW3       29.92R                  
COLUMBUS       CLOUDY    82  75  78 SW8       29.92R                  
FRANKFORT +    CLOUDY    77  74  90 NW7       29.94R                  
GREENWOOD *+   CLOUDY   N/A N/A N/A S5        29.92S                  
INDIANAPOLIS   CLOUDY    78  72  81 SW8       29.90R                  
-EAGLE CREEK   CLOUDY    77  70  79 SW6       29.90R                  
KOKOMO +       CLOUDY    74  72  93 W10       29.91R                  
MARION +       CLOUDY    75  72  88 NW5       29.91R                  
MT COMFORT *+  CLOUDY    73  70  88 S8        29.91R                  
SHELBYVILLE    PTSUNNY   80  71  74 S8        29.91R                  
ZIONSVILLE +   PTSUNNY   75  72  88 SW7       29.92R                  
$$
INZ033-034-041-042-049-050-058-059-221500-
EAST CENTRAL INDIANA
  
CITY           SKY/WX    TMP DP  RH WIND       PRES   REMARKS
MUNCIE         CLOUDY    78  72  81 SW9       29.89R                  
RICHMOND +     CLOUDY    72  72 100 SW9       29.92R                  
$$
INZ060-061-067>069-081>083-085>088-221500-
SOUTHWEST INDIANA
  
CITY           SKY/WX    TMP DP  RH WIND       PRES   REMARKS
EVANSVILLE     SUNNY     88  74  63 SW13      29.94R HX  96           
HUNTINGBURG *+ SUNNY     85  77  77 SW7       29.94R HX  95           
$$
INZ062-063-066-070>080-084-089>092-221500-
SOUTH CENTRAL AND SOUTHEAST INDIANA
  
CITY           SKY/WX    TMP DP  RH WIND       PRES   REMARKS
BEDFORD +      CLOUDY    86  73  66 W9G16     29.92R                  
BLOOMINGTON    MOSUNNY   82  74  76 SW9       29.93R                  
MADISON *+     PTSUNNY   84  73  70 S9        29.95F                  
NORTH VERNON + MOSUNNY   82  75  78 S6        29.93R                  
SEYMOUR +      CLOUDY    86  75  70 SW6       29.92R HX  95           
$$